This is the latest recevied weather packets stored in our database for station/object OK1FET-5. If no packets are shown the sender has not sent any weather packets the latest 10 day(s).
| Time | Temp. | Humidity | Pressure | Rain* | Wind** | Luminosity | Snow |
|---|---|---|---|---|---|---|---|
| 1788552124 | 19.44° C | 60% | 1012.6 hPa | - | - | - | - |
| 1788551528 | 20° C | 59% | 1012.7 hPa | - | - | - | - |
| 1788550933 | 20.56° C | 58% | 1012.7 hPa | - | - | - | - |
| 1788550337 | 21.67° C | 57% | 1012.6 hPa | - | - | - | - |
| 1788549741 | 23.33° C | 57% | 1012.4 hPa | - | - | - | - |
| 1788549145 | 23.89° C | 55% | 1012.3 hPa | - | - | - | - |
| 1788548550 | 23.89° C | 54% | 1012.2 hPa | - | - | - | - |
| 1788547954 | 24.44° C | 54% | 1012 hPa | - | - | - | - |
| 1788547358 | 24.44° C | 54% | 1011.9 hPa | - | - | - | - |
| 1788546762 | 24.44° C | 53% | 1011.7 hPa | - | - | - | - |
| 1788546166 | 24.44° C | 53% | 1011.7 hPa | - | - | - | - |
| 1788545571 | 25° C | 52% | 1011.6 hPa | - | - | - | - |
| 1788544975 | 25° C | 52% | 1011.5 hPa | - | - | - | - |
| 1788544379 | 25° C | 51% | 1011.5 hPa | - | - | - | - |
| 1788543784 | 25.56° C | 50% | 1011.5 hPa | - | - | - | - |
| 1788543188 | 26.11° C | 49% | 1011.5 hPa | - | - | - | - |
| 1788542592 | 26.67° C | 48% | 1011.5 hPa | - | - | - | - |
| 1788541996 | 27.22° C | 47% | 1011.6 hPa | - | - | - | - |
| 1788541400 | 27.22° C | 47% | 1011.8 hPa | - | - | - | - |
| 1788540804 | 27.22° C | 47% | 1011.8 hPa | - | - | - | - |
| 1788540209 | 27.22° C | 46% | 1011.9 hPa | - | - | - | - |
| 1788539613 | 27.22° C | 46% | 1012.1 hPa | - | - | - | - |
| 1788539017 | 27.78° C | 45% | 1012 hPa | - | - | - | - |
| 1788537826 | 28.89° C | 42% | 1012 hPa | - | - | - | - |
| 1788537230 | 30° C | 40% | 1011.8 hPa | - | - | - | - |
* Rain since midnight (hover to see other rain measurements)
** Current wind speed in m/s (hover to see current wind gust speed)